This is the latest recevied weather packets stored in our database for station/object KG5APU. If no packets are shown the sender has not sent any weather packets the latest 1 day(s).
| Time | Temp. | Humidity | Pressure | Rain* | Wind** | Luminosity | Snow |
|---|---|---|---|---|---|---|---|
| 1777974560 | 21.67° C | 86% | 1005.1 hPa | 0 mm | 4.47 m/s, 214° | 0 W/m² | - |
| 1777973959 | 21.67° C | 86% | 1005.1 hPa | 0 mm | 5.36 m/s, 202° | 0 W/m² | - |
| 1777973359 | 21.67° C | 86% | 1005.3 hPa | 0 mm | 3.58 m/s, 208° | 0 W/m² | - |
| 1777972754 | 21.67° C | 86% | 1005.3 hPa | 0 mm | 3.58 m/s, 221° | 0 W/m² | - |
| 1777972149 | 21.67° C | 86% | 1005.3 hPa | 0 mm | 3.13 m/s, 217° | 0 W/m² | - |
| 1777971544 | 21.67° C | 86% | 1005 hPa | 0 mm | 2.24 m/s, 166° | 0 W/m² | - |
| 1777970940 | 21.67° C | 86% | 1005.1 hPa | 0 mm | 2.24 m/s, 182° | 0 W/m² | - |
| 1777970336 | 21.67° C | 86% | 1005 hPa | 0 mm | 2.68 m/s, 177° | 0 W/m² | - |
| 1777969735 | 21.67° C | 86% | 1005 hPa | 0 mm | 3.13 m/s, 163° | 0 W/m² | - |
| 1777969134 | 21.67° C | 86% | 1005.4 hPa | 0 mm | 3.13 m/s, 95° | 0 W/m² | - |
| 1777968533 | 21.67° C | 85% | 1005.4 hPa | 0 mm | 2.24 m/s, 226° | 0 W/m² | - |
| 1777967931 | 21.67° C | 85% | 1005.4 hPa | 0 mm | 3.13 m/s, 180° | 0 W/m² | - |
| 1777967325 | 21.67° C | 85% | 1005.7 hPa | 0 mm | 2.24 m/s, 156° | 0 W/m² | - |
| 1777966725 | 21.67° C | 84% | 1005.9 hPa | 0 mm | 4.02 m/s, 202° | 0 W/m² | - |
| 1777966126 | 21.67° C | 84% | 1006.1 hPa | 0 mm | 4.02 m/s, 238° | 0 W/m² | - |
| 1777965524 | 21.67° C | 84% | 1006.3 hPa | 0 mm | 1.34 m/s, 222° | 0 W/m² | - |
| 1777964919 | 22.22° C | 83% | 1006 hPa | 0 mm | 4.47 m/s, 166° | 0 W/m² | - |
| 1777964316 | 22.22° C | 83% | 1006.2 hPa | 0 mm | 2.68 m/s, 214° | 0 W/m² | - |
| 1777963716 | 22.22° C | 83% | 1006.7 hPa | 0 mm | 2.24 m/s, 182° | 0 W/m² | - |
| 1777963111 | 22.22° C | 82% | 1006.4 hPa | 0 mm | 3.13 m/s, 153° | 0 W/m² | - |
| 1777962509 | 22.22° C | 82% | 1006.4 hPa | 0 mm | 2.68 m/s, 218° | 0 W/m² | - |
* Rain latest hour (hover to see other rain measurements)
** Current wind speed in m/s (hover to see current wind gust speed)